George/Botha, South Africa

9:20 AM SAST on December 03, 2016 (GMT +0200)
George

Weather History for FAGG - October, 2012

Change the Weather History Date:

Saturday, October 27, 2012

  Actual Average Record
Temperature  
Mean Temperature 58 °F -  
Max Temperature 66 °F 69 °F 89 °F (2005)
Min Temperature 51 °F 52 °F 46 °F (2000)
Degree Days  
Heating Degree Days 6    
Growing Degree Days 8 (Base 50)    
Moisture  
Dew Point 52 °F    
Average Humidity 78    
Maximum Humidity 94    
Minimum Humidity 54    
Precipitation  
Precipitation 0.00 in - - ()
Sea Level Pressure  
Sea Level Pressure 30.12 in    
Wind  
Wind Speed 8 mph ()    
Max Wind Speed 17 mph    
Max Gust Speed -    
Visibility 7.1 miles    
Events      
Averages and records for this station are not official NWS values.
T = Trace of Precipitation, MM = Missing Value Source: Averaged Metar Reports

Daily Weather History Graph

Daily Weather History Graph

Search for Another Location

Airport or City:

Trip Planner

Search our weather history database for the weather conditions in past years. The results will help you decide how hot, cold, wet, or windy it might be!

Date:

Astronomy

Oct. 27, 2012 Rise Set
Actual Time 5:34 AM SAST 6:54 PM SAST
Civil Twilight 5:08 AM SAST 7:20 PM SAST
Nautical Twilight 4:37 AM SAST 7:52 PM SAST
Astronomical Twilight 4:04 AM SAST 8:24 PM SAST
Moon 4:56 PM SAST (10/27) 3:58 AM SAST (10/27)
Length of Visible Light 14h 12m
Length of Day
13h 19m
Waxing Gibbous, 95% of the Moon is Illuminated
Oct 27
Waxing Gibbous
Oct 29
Full
Nov 7
Last Quarter
Nov 14
New
Nov 20
First Quarter

Hourly Weather History & Observations

Time (SAST) Temp. Dew Point Humidity Pressure Visibility Wind Dir Wind Speed Gust Speed Precip Events Conditions
12:00 AM 53.6 °F 51.8 °F 94% 30.21 in 6.2 mi Variable 1.2 mph - N/A   Mostly Cloudy
1:00 AM 53.6 °F 50.0 °F 88% 30.18 in 6.2 mi East 4.6 mph - N/A   Mostly Cloudy
2:00 AM 53 °F 51 °F 88% 30.19 in 6 mi East 5.8 mph - -  
2:00 AM 53.6 °F 50.0 °F 88% 30.18 in 6.2 mi East 5.8 mph - N/A   Mostly Cloudy
3:00 AM 53.6 °F 50.0 °F 88% 30.18 in 4.3 mi East 5.8 mph - N/A   Mostly Cloudy
4:00 AM 51.8 °F 50.0 °F 94% 30.15 in 6.2 mi East 9.2 mph - N/A   Mostly Cloudy
5:00 AM 53 °F 50 °F 84% 30.16 in 12 mi East 11.5 mph - -   Partly Cloudy
5:00 AM 51.8 °F 50.0 °F 94% 30.15 in 6.2 mi East 12.7 mph - N/A   Scattered Clouds
6:00 AM 51.8 °F 48.2 °F 88% 30.15 in 6.2 mi East 9.2 mph - N/A   Scattered Clouds
7:00 AM 53.6 °F 48.2 °F 82% 30.15 in 6.2 mi East 9.2 mph - N/A   Partly Cloudy
8:00 AM 57 °F 49 °F 67% 30.16 in 12 mi East 12.7 mph - -   Scattered Clouds
8:00 AM 57.2 °F 50.0 °F 77% 30.15 in 6.2 mi East 12.7 mph - N/A   Partly Cloudy
9:00 AM 60.8 °F 50.0 °F 68% 30.15 in 6.2 mi ESE 13.8 mph - N/A   Partly Cloudy
10:00 AM 62.6 °F 51.8 °F 68% 30.09 in 6.2 mi East 11.5 mph - N/A   Partly Cloudy
11:00 AM 65 °F 52 °F 54% 30.13 in 12 mi ESE 10.4 mph - -   Partly Cloudy
11:00 AM 64.4 °F 51.8 °F 64% 30.12 in 6.2 mi ESE 10.4 mph - N/A   Scattered Clouds
12:00 PM 66.2 °F 53.6 °F 64% 30.12 in 6.2 mi ESE 11.5 mph - N/A   Scattered Clouds
1:00 PM 64.4 °F 51.8 °F 64% 30.09 in 6.2 mi ESE 12.7 mph - N/A   Mostly Cloudy
2:00 PM 65 °F 53 °F 57% 30.11 in 12 mi ESE 16.1 mph - -   Mostly Cloudy
2:00 PM 64.4 °F 53.6 °F 68% 30.09 in 6.2 mi ESE 16.1 mph - N/A   Mostly Cloudy
3:00 PM 64.4 °F 53.6 °F 68% 30.06 in 6.2 mi ESE 17.3 mph - N/A   Scattered Clouds
4:00 PM 64.4 °F 53.6 °F 68% 30.04 in 6.2 mi ESE 17.3 mph - N/A   Partly Cloudy
5:00 PM 62 °F 54 °F 66% 30.07 in 12 mi ESE 16.1 mph - -   Scattered Clouds
5:00 PM 62.6 °F 53.6 °F 72% 30.04 in 6.2 mi ESE 16.1 mph - N/A   Partly Cloudy
6:00 PM 60.8 °F 53.6 °F 77% 30.06 in 6.2 mi East 11.5 mph - N/A   Partly Cloudy
7:00 PM 57.2 °F 53.6 °F 88% 30.06 in 6.2 mi East 9.2 mph - N/A   Partly Cloudy
8:00 PM 57 °F 53 °F 81% 30.11 in 12 mi ESE 9.2 mph - -   Scattered Clouds
8:00 PM 57.2 °F 53.6 °F 88% 30.09 in 6.2 mi ESE 9.2 mph - N/A   Partly Cloudy
9:00 PM 55.4 °F 51.8 °F 88% 30.09 in 5.6 mi ENE 4.6 mph - N/A   Unknown
10:00 PM 55.4 °F 51.8 °F 88% 30.09 in 4.3 mi ESE 3.5 mph - N/A   Unknown
11:00 PM 53.6 °F 50.0 °F 88% 30.09 in 5.0 mi North 3.5 mph - N/A   Unknown